MPEC 2008-H40 : 2008 HB2

The following Minor Planet Electronic Circular may be linked-to from your own Web pages, but must not otherwise be redistributed electronically.


Read MPEC 2008-H39 Read MPEC 2008-H41


M.P.E.C. 2008-H40                                Issued 2008 Apr. 28, 19:05 UT

     The Minor Planet Electronic Circulars contain information on unusual
         minor planets and routine data on comets.  They are published
   on behalf of Commission 20 of the International Astronomical Union by the
          Minor Planet Center, Smithsonian Astrophysical Observatory,
                          Cambridge, MA 02138, U.S.A.

             Prepared using the Tamkin Foundation Computer Network

                              MPC@CFA.HARVARD.EDU
          URL http://www.cfa.harvard.edu/iau/mpc.html  ISSN 1523-6714

                                   2008 HB2

Observations:
     K08H02B* C2008 04 27.19728 11 44 20.00 +03 29 57.0          20.6 V EH040G96
     K08H02B  C2008 04 27.20282 11 44 23.13 +03 29 28.8          20.9 V EH040G96
     K08H02B  C2008 04 27.20839 11 44 26.30 +03 29 00.9          20.6 V EH040G96
     K08H02B  C2008 04 27.21399 11 44 29.50 +03 28 32.8          20.3 V EH040G96
     K08H02B  C2008 04 27.27442 11 45 04.21 +03 23 26.4          20.5 V EH040G96
     K08H02B  C2008 04 27.27507 11 45 04.53 +03 23 22.7          20.1 V EH040G96
     K08H02B  C2008 04 27.27572 11 45 04.96 +03 23 19.8          20.9 V EH040G96
     K08H02B  C2008 04 28.21367 11 55 19.16 +02 02 12.5          20.7 V EH040G96
     K08H02B  C2008 04 28.21432 11 55 19.56 +02 02 09.0          21.0 V EH040G96
     K08H02B  C2008 04 28.21496 11 55 19.88 +02 02 05.1          20.6 V EH040G96
     K08H02B  C2008 04 28.21561 11 55 20.38 +02 02 01.9          20.5 V EH040G96
     K08H02B  C2008 04 28.23672 11 55 30.90 +01 59 52.1          19.7 R EH040734
     K08H02B  C2008 04 28.24032 11 55 33.13 +01 59 32.7          20.8 R EH040734
     K08H02B  C2008 04 28.24392 11 55 35.33 +01 59 13.4          20.2 R EH040734
     K08H02B  C2008 04 28.24752 11 55 37.55 +01 58 54.2          20.2 R EH040734
     K08H02B  C2008 04 28.25112 11 55 39.77 +01 58 34.1          20.5 R EH040734

Observer details:
734 Farpoint Observatory.  Observer G. Hug.  0.7-m reflector + CCD.
G96 Mt. Lemmon Survey.  Observer A. Boattini.  Measurers E. C. Beshore,
    A. Boattini, G. J. Garradd, A. R. Gibbs, A. D. Grauer, R. E. Hill,
    R. A. Kowalski, S. M. Larson, R. H. McNaught.  1.5-m reflector + CCD.

Orbital elements:
2008 HB2                                                 Earth MOID = 0.0374 AU
Epoch 2008 May 14.0 TT = JDT 2454600.5                  MPC
M   9.64855              (2000.0)            P               Q
n   0.44901622     Peri.  168.30139     -0.86362114     +0.50407606
a   1.6889937      Node    41.97185     -0.46351377     -0.78759075
e   0.3827122      Incl.    0.69521     -0.19827632     -0.35441239
P   2.20           H   25.5           G   0.15           U   8
Residuals in seconds of arc
080427 G96  0.2-  0.7+    080427 G96  0.4-  0.0     080428 734  0.4-  0.3+
080427 G96  0.6-  0.3+    080428 G96  0.7-  0.6+    080428 734  0.5-  0.3+
080427 G96  0.7-  0.5+    080428 G96  0.5-  0.6+    080428 734  0.5-  0.3+
080427 G96  0.6-  0.6+    080428 G96  1.5-  0.1+    080428 734  0.4-  0.5-
080427 G96  0.3-  0.0     080428 G96  0.1+  0.3+
080427 G96  1.2-  0.4-    080428 734  0.7-  0.5+

Ephemeris:
2008 HB2                 a,e,i = 1.69, 0.38, 1                   q = 1.0426
Date    TT    R. A. (2000) Decl.     Delta      r     Elong.  Phase     V
2008 04 24    11 13.45   +07 32.9    0.0537   1.043   132.2    45.6    21.0
2008 05 04    13 06.77   -07 20.6    0.0453   1.049   154.4    24.5    20.0
2008 05 14    15 09.84   -20 27.6    0.0556   1.066   176.1     3.7    19.7
2008 05 24    16 25.37   -25 12.7    0.0798   1.092   173.4     6.1    20.7
2008 06 03    17 02.91   -26 26.3    0.112    1.126   174.2     5.2    21.4
2008 06 13    17 22.05   -26 38.4    0.151    1.166   176.4     3.1    22.0

Timothy B. Spahr             (C) Copyright 2008 MPC           M.P.E.C. 2008-H40

Read MPEC 2008-H39 Read MPEC 2008-H41


Our Web policy. Index to the CBAT/MPC/ICQ pages.

MPC

Valid HTML 4.01!